GW3523 Weather Reports


Display with metric or nautical units.
time (UTC)temp
F
wind
direction
speed
MPH
gust
MPH
rain 1hr
in
rain 24hr
in
rain mn
in
humidity
%
barometer
mb
20260505230430 75 261 1.0 1.0 0.00 0.00 0.00 42 1007.3
20260505225926 75 223 1.0 1.0 0.00 0.00 0.00 41 1007.2
20260505225423 75 149 4.0 4.0 0.00 0.00 0.00 39 1007.4
20260505224918 75 208 1.0 2.0 0.00 0.00 0.00 41 1007.3
20260505224416 75 189 1.0 2.0 0.00 0.00 0.00 41 1007.3
20260505223913 75 275 0.0 0.0 0.00 0.00 0.00 42 1007.4
20260505223410 75 285 1.0 2.0 0.00 0.00 0.00 41 1007.4
20260505222906 75 241 1.0 2.0 0.00 0.00 0.00 40 1007.2
20260505222402 75 163 7.0 9.0 0.00 0.00 0.00 40 1007.2
20260505221859 75 263 0.0 1.0 0.00 0.00 0.00 42 1007.2
20260505221356 75 265 0.0 0.0 0.00 0.00 0.00 43 1007.3
20260505220853 75 155 0.0 1.0 0.00 0.00 0.00 41 1007.3
20260505220350 75 266 0.0 0.0 0.00 0.00 0.00 42 1007.1
20260505215847 76 265 4.0 6.0 0.00 0.00 0.00 40 1007.1
20260505215345 76 242 0.0 0.0 0.00 0.00 0.00 43 1007.2
20260505214843 76 229 0.0 1.0 0.00 0.00 0.00 41 1007.2
20260505214340 75 245 1.0 1.0 0.00 0.00 0.00 41 1007.1
20260505213837 75 248 1.0 2.0 0.00 0.00 0.00 43 1007.0
20260505213335 75 195 2.0 3.0 0.00 0.00 0.00 41 1007.2
20260505212831 75 215 2.0 3.0 0.00 0.00 0.00 40 1007.2
20260505212328 75 238 1.0 2.0 0.00 0.00 0.00 40 1007.3
20260505211824 76 175 4.0 4.0 0.00 0.00 0.00 39 1007.0
20260505211322 76 293 0.0 1.0 0.00 0.00 0.00 41 1006.9
20260505210818 76 177 1.0 1.0 0.00 0.00 0.00 40 1007.1
20260505210315 76 280 1.0 2.0 0.00 0.00 0.00 41 1006.9
20260505205812 77 101 1.0 1.0 0.00 0.00 0.00 40 1006.7
20260505205311 77 259 0.0 1.0 0.00 0.00 0.00 42 1006.8
20260505204807 77 262 1.0 1.0 0.00 0.00 0.00 41 1006.7
20260505204305 77 168 1.0 2.0 0.00 0.00 0.00 40 1006.9
20260505203802 77 189 6.0 7.0 0.00 0.00 0.00 39 1006.6
20260505203259 78 200 5.0 7.0 0.00 0.00 0.00 38 1006.7
20260505202754 78 233 2.0 3.0 0.00 0.00 0.00 38 1006.7
20260505202251 79 225 1.0 2.0 0.00 0.00 0.00 37 1006.4
20260505201747 81 167 2.0 3.0 0.00 0.00 0.00 35 1006.8
20260505201245 80 277 2.0 3.0 0.00 0.00 0.00 38 1006.8
20260505200744 81 172 2.0 4.0 0.00 0.00 0.00 37 1006.8
20260505200240 80 173 4.0 4.0 0.00 0.00 0.00 36 1006.8
20260505195735 78 157 2.0 7.0 0.00 0.00 0.00 37 1006.9
20260505195233 79 270 1.0 1.0 0.00 0.00 0.00 38 1006.9
20260505194730 81 159 8.0 9.0 0.00 0.00 0.00 36 1006.8
20260505194227 82 248 1.0 1.0 0.00 0.00 0.00 35 1006.9
20260505193722 79 144 3.0 6.0 0.00 0.00 0.00 37 1006.8
20260505193220 78 210 4.0 6.0 0.00 0.00 0.00 37 1006.8
20260505192719 79 153 6.0 7.0 0.00 0.00 0.00 38 1007.0
20260505192216 81 109 7.0 8.0 0.00 0.00 0.00 38 1007.1
20260505191714 80 158 5.0 6.0 0.00 0.00 0.00 37 1007.2
20260505191212 80 189 6.0 8.0 0.00 0.00 0.00 36 1007.0
20260505190708 82 203 3.0 4.0 0.00 0.00 0.00 35 1007.3
20260505190207 80 187 2.0 2.0 0.00 0.00 0.00 37 1007.5
20260505185705 82 307 3.0 3.0 0.00 0.00 0.00 35 1007.4
20260505185201 80 240 3.0 4.0 0.00 0.00 0.00 34 1007.7
20260505184657 82 158 2.0 3.0 0.00 0.00 0.00 34 1007.6
20260505184155 80 277 0.0 1.0 0.00 0.00 0.00 40 1007.8
20260505183651 80 228 1.0 2.0 0.00 0.00 0.00 37 1007.7
20260505183149 81 148 6.0 7.0 0.00 0.00 0.00 35 1007.6
20260505182645 80 153 2.0 6.0 0.00 0.00 0.00 35 1007.8
20260505182142 82 257 2.0 3.0 0.00 0.00 0.00 35 1008.2
20260505181638 81 187 3.0 4.0 0.00 0.00 0.00 35 1008.1
20260505181136 81 219 2.0 3.0 0.00 0.00 0.00 39 1008.0
20260505180632 82 255 0.0 1.0 0.00 0.00 0.00 38 1008.2
20260505180130 82 144 5.0 7.0 0.00 0.00 0.00 36 1008.2
20260505175625 83 106 3.0 6.0 0.00 0.00 0.00 33 1008.2
20260505175122 83 250 0.0 1.0 0.00 0.00 0.00 36 1008.0
20260505174618 82 217 6.0 8.0 0.00 0.00 0.00 36 1008.1
20260505174115 82 182 2.0 2.0 0.00 0.00 0.00 39 1008.2
20260505173611 81 224 0.0 1.0 0.00 0.00 0.00 40 1008.1
20260505173108 82 106 1.0 1.0 0.00 0.00 0.00 38 1008.1
20260505172606 82 231 2.0 2.0 0.00 0.00 0.00 38 1007.9
20260505172103 82 256 0.0 0.0 0.00 0.00 0.00 38 1008.4
20260505171557 81 87 3.0 4.0 0.00 0.00 0.00 36 1008.4
20260505171054 81 5 3.0 4.0 0.00 0.00 0.00 38 1008.3
20260505170551 80 245 1.0 2.0 0.00 0.00 0.00 42 1008.4
20260505170048 80 251 3.0 6.0 0.00 0.00 0.00 40 1008.8
20260505165542 80 270 0.0 1.0 0.00 0.00 0.00 41 1008.7
20260505165038 82 103 0.0 1.0 0.00 0.00 0.00 37 1008.6
20260505164529 82 248 2.0 2.0 0.00 0.00 0.00 36 1008.5
20260505164027 80 268 2.0 3.0 0.00 0.00 0.00 44 1008.7
20260505163525 80 215 1.0 1.0 0.00 0.00 0.00 41 1008.8
20260505163021 81 258 2.0 2.0 0.00 0.00 0.00 41 1008.8
20260505162515 80 269 0.0 1.0 0.00 0.00 0.00 42 1009.0
20260505162012 80 262 2.0 2.0 0.00 0.00 0.00 40 1008.9
20260505161508 80 256 2.0 3.0 0.00 0.00 0.00 40 1008.9
20260505161005 79 249 2.0 2.0 0.00 0.00 0.00 40 1009.0
20260505160458 78 159 2.0 4.0 0.00 0.00 0.00 45 1009.0
20260505152928 77 242 1.0 1.0 0.00 0.00 0.00 45 1009.2
20260505152426 77 262 1.0 2.0 0.00 0.00 0.00 49 1009.4
20260505151925 75 148 2.0 2.0 0.00 0.00 0.00 48 1009.2
20260505151416 77 161 2.0 3.0 0.00 0.00 0.00 46 1009.3
20260505150914 76 161 5.0 6.0 0.00 0.00 0.00 49 1009.3
20260505150410 75 194 2.0 3.0 0.00 0.00 0.00 49 1009.5
20260505140335 74 226 3.0 4.0 0.00 0.00 0.00 48 1009.4
20260505130252 71 271 0.0 0.0 0.00 0.00 0.00 54 1010.0
20260505124743 70 269 0.0 1.0 0.00 0.00 0.00 56 1010.0
20260505124239 70 222 1.0 2.0 0.00 0.00 0.00 52 1009.8
20260505123735 69 349 2.0 2.0 0.00 0.00 0.00 54 1009.6
20260505123232 70 207 2.0 2.0 0.00 0.00 0.00 52 1009.8
20260505122728 69 239 0.0 0.0 0.00 0.00 0.00 54 1009.6
20260505122226 69 249 0.0 1.0 0.00 0.00 0.00 53 1009.9
20260505121722 69 244 1.0 1.0 0.00 0.00 0.00 54 1009.8
20260505121219 68 262 0.0 0.0 0.00 0.00 0.00 56 1009.8
20260505120715 67 253 0.0 1.0 0.00 0.00 0.00 57 1009.7
20260505120211 67 283 0.0 1.0 0.00 0.00 0.00 59 1009.9
20260505115705 67 269 0.0 0.0 0.00 0.00 0.00 59 1009.7
20260505115203 65 252 0.0 0.0 0.00 0.00 0.00 61 1009.6
20260505114700 65 276 0.0 0.0 0.00 0.00 0.00 62 1009.8
20260505114155 66 271 0.0 0.0 0.00 0.00 0.00 59 1009.5
20260505113652 67 261 0.0 0.0 0.00 0.00 0.00 57 1009.6
20260505113149 66 234 0.0 1.0 0.00 0.00 0.00 59 1009.6
20260505112645 65 261 0.0 0.0 0.00 0.00 0.00 61 1009.6
20260505112144 65 274 1.0 1.0 0.00 0.00 0.00 60 1009.6
20260505111643 64 287 0.0 1.0 0.00 0.00 0.00 61 1009.5
20260505111139 63 260 1.0 2.0 0.00 0.00 0.00 62 1009.5
20260505110635 62 268 0.0 0.0 0.00 0.00 0.00 65 1009.5
20260505110133 61 267 0.0 0.0 0.00 0.00 0.00 67 1009.4
20260505102108 61 312 2.0 2.0 0.00 0.00 0.00 66 1009.2
20260505101607 61 264 0.0 0.0 0.00 0.00 0.00 68 1009.0
20260505101103 60 270 1.0 1.0 0.00 0.00 0.00 68 1008.9
20260505100559 60 263 0.0 0.0 0.00 0.00 0.00 67 1009.1
20260505100056 60 266 0.0 1.0 0.00 0.00 0.00 70 1009.0
20260505095552 60 295 1.0 2.0 0.00 0.00 0.00 68 1008.9
20260505095049 59 275 0.0 1.0 0.00 0.00 0.00 70 1008.9
20260505094545 59 246 0.0 1.0 0.00 0.00 0.00 70 1008.6
20260505094042 59 313 2.0 3.0 0.00 0.00 0.00 70 1008.6
20260505093538 59 304 2.0 3.0 0.00 0.00 0.00 70 1008.9
20260505093036 60 247 2.0 2.0 0.00 0.00 0.00 69 1008.8
20260505092533 60 283 0.0 0.0 0.00 0.00 0.00 70 1008.7
20260505092031 60 315 0.0 1.0 0.00 0.00 0.00 69 1008.7
20260505091528 60 301 3.0 3.0 0.00 0.00 0.00 69 1008.6
20260505091026 60 272 0.0 1.0 0.00 0.00 0.00 67 1008.7
20260505090524 60 248 0.0 0.0 0.00 0.00 0.00 67 1008.6
20260505090021 60 311 1.0 1.0 0.00 0.00 0.00 69 1008.7
20260505085519 60 133 2.0 3.0 0.00 0.00 0.00 69 1008.8
20260505085017 60 140 1.0 2.0 0.00 0.00 0.00 69 1008.7
20260505084515 60 268 0.0 0.0 0.00 0.00 0.00 70 1008.7
20260505084013 59 281 0.0 0.0 0.00 0.00 0.00 72 1008.7
20260505083510 59 239 1.0 2.0 0.00 0.00 0.00 72 1008.8
20260505083006 60 272 0.0 0.0 0.00 0.00 0.00 71 1008.7
20260505082502 60 277 0.0 1.0 0.00 0.00 0.00 71 1008.7
20260505081959 61 292 2.0 2.0 0.00 0.00 0.00 69 1008.5
20260505081456 61 322 1.0 2.0 0.00 0.00 0.00 69 1008.4
20260505080952 61 289 1.0 1.0 0.00 0.00 0.00 69 1008.6
20260505080448 61 257 0.0 1.0 0.00 0.00 0.00 69 1008.6
20260505075944 61 270 0.0 1.0 0.00 0.00 0.00 67 1008.7
20260505075441 60 286 0.0 1.0 0.00 0.00 0.00 65 1008.5
20260505074938 59 274 1.0 2.0 0.00 0.00 0.00 66 1008.7
20260505074436 57 319 1.0 2.0 0.00 0.00 0.00 71 1008.9
20260505073933 57 302 1.0 1.0 0.00 0.00 0.00 70 1008.7
20260505073430 58 262 0.0 0.0 0.00 0.00 0.00 68 1008.8
20260505072927 58 271 0.0 0.0 0.00 0.00 0.00 68 1008.5
20260505072423 59 319 2.0 2.0 0.00 0.00 0.00 64 1008.6
20260505071920 58 267 0.0 0.0 0.00 0.00 0.00 66 1008.7
20260505071416 57 297 1.0 2.0 0.00 0.00 0.00 67 1008.7
20260505070914 58 268 0.0 0.0 0.00 0.00 0.00 67 1008.7
20260505070410 57 289 1.0 1.0 0.00 0.00 0.00 68 1008.8
20260505065906 57 265 0.0 0.0 0.00 0.00 0.00 68 1008.7
20260505065402 57 266 0.0 0.0 0.00 0.00 0.00 67 1008.8
20260505064859 58 297 1.0 1.0 0.00 0.00 0.00 67 1008.9
20260505064356 59 269 0.0 0.0 0.00 0.00 0.00 65 1008.7
20260505063855 59 289 1.0 1.0 0.00 0.00 0.00 65 1008.9
20260505063356 59 272 0.0 0.0 0.00 0.00 0.00 65 1008.9
20260505062852 59 264 0.0 0.0 0.00 0.00 0.00 63 1008.9
20260505062350 60 270 0.0 0.0 0.00 0.00 0.00 62 1009.0
20260505061846 60 284 1.0 1.0 0.00 0.00 0.00 61 1009.0
20260505061345 60 284 0.0 0.0 0.00 0.00 0.00 62 1009.0
20260505060842 60 264 0.0 0.0 0.00 0.00 0.00 62 1009.2
20260505060339 60 264 0.0 0.0 0.00 0.00 0.00 63 1009.1
20260505055835 60 301 2.0 2.0 0.00 0.00 0.00 60 1009.2
20260505055331 61 318 1.0 2.0 0.00 0.00 0.00 60 1009.2
20260505054828 61 247 1.0 1.0 0.00 0.00 0.00 60 1009.2
20260505054325 62 266 0.0 0.0 0.00 0.00 0.00 58 1009.2
20260505053824 61 280 1.0 1.0 0.00 0.00 0.00 59 1009.0
20260505053320 61 341 2.0 3.0 0.00 0.00 0.00 60 1009.2
20260505052817 61 267 0.0 0.0 0.00 0.00 0.00 60 1009.0
20260505052314 61 304 2.0 2.0 0.00 0.00 0.00 60 1009.2
20260505051811 60 279 0.0 0.0 0.00 0.00 0.00 59 1009.0
20260505051309 61 270 1.0 1.0 0.00 0.00 0.00 59 1009.1
20260505050806 60 165 0.0 1.0 0.00 0.00 0.00 60 1009.1
20260505050305 61 272 0.0 0.0 0.00 0.00 0.00 59 1009.1
20260505041735 63 253 1.0 1.0 0.00 0.00 0.00 54 1008.9
20260505041232 62 168 5.0 6.0 0.00 0.00 0.00 51 1008.7
20260505040729 63 187 2.0 3.0 0.00 0.00 0.00 51 1008.7
20260505040226 63 227 0.0 0.0 0.00 0.00 0.00 53 1008.5
20260505035723 63 175 3.0 3.0 0.00 0.00 0.00 51 1008.7
20260505035219 63 269 0.0 0.0 0.00 0.00 0.00 51 1008.8
20260505034716 62 228 1.0 2.0 0.00 0.00 0.00 51 1008.6
20260505034213 63 144 4.0 6.0 0.00 0.00 0.00 49 1008.6
20260505033709 62 200 3.0 6.0 0.00 0.00 0.00 51 1008.7
20260505033208 62 183 3.0 3.0 0.00 0.00 0.00 50 1008.7
20260505032705 62 161 0.0 1.0 0.00 0.00 0.00 52 1008.6
20260505032201 62 130 4.0 4.0 0.00 0.00 0.00 51 1008.8
20260505031658 62 156 2.0 2.0 0.00 0.00 0.00 52 1008.5
20260505031155 63 152 2.0 3.0 0.00 0.00 0.00 49 1008.5
20260505030651 63 179 3.0 4.0 0.00 0.00 0.00 50 1008.7
20260505030147 63 152 2.0 3.0 0.00 0.00 0.00 51 1008.7
20260505025643 63 98 4.0 4.0 0.00 0.00 0.00 50 1008.7
20260505025142 63 128 4.0 4.0 0.00 0.00 0.00 49 1008.8
20260505024639 63 66 1.0 2.0 0.00 0.00 0.00 49 1008.6
20260505024136 63 179 2.0 2.0 0.00 0.00 0.00 49 1008.7
20260505023634 63 150 4.0 4.0 0.00 0.00 0.00 49 1008.9
20260505023131 63 107 5.0 8.0 0.00 0.00 0.00 50 1008.6
20260505022628 64 161 6.0 8.0 0.00 0.00 0.00 49 1008.9
20260505022125 64 111 10.0 13.0 0.00 0.00 0.00 48 1009.1
20260505021622 63 262 2.0 3.0 0.00 0.00 0.00 49 1008.8
20260505021119 64 183 2.0 2.0 0.00 0.00 0.00 49 1009.0
20260505020614 64 246 4.0 6.0 0.00 0.00 0.00 48 1008.9
20260505020111 64 145 6.0 7.0 0.00 0.00 0.00 48 1009.1
20260505015608 64 170 5.0 7.0 0.00 0.00 0.00 48 1009.1
20260505015105 64 176 3.0 3.0 0.00 0.00 0.00 48 1008.9
20260505014601 64 164 4.0 4.0 0.00 0.00 0.00 47 1008.9
20260505014058 64 164 4.0 4.0 0.00 0.00 0.00 47 1009.1
20260505013555 64 177 5.0 7.0 0.00 0.00 0.00 47 1008.8
20260505013053 64 141 4.0 7.0 0.00 0.00 0.00 47 1008.8
20260505012551 64 122 5.0 6.0 0.00 0.00 0.00 48 1008.9
20260505012047 65 99 10.0 13.0 0.00 0.00 0.00 47 1009.0
20260505011543 65 152 5.0 6.0 0.00 0.00 0.00 46 1008.7
20260505011041 65 170 2.0 3.0 0.00 0.00 0.00 47 1008.7
20260505010536 65 163 5.0 6.0 0.00 0.00 0.00 47 1008.8
20260505010033 65 140 4.0 7.0 0.00 0.00 0.00 46 1008.5
20260505005529 66 148 2.0 4.0 0.00 0.00 0.00 46 1008.5
20260505005027 66 169 0.0 0.0 0.00 0.00 0.00 46 1008.4
20260505004523 65 262 1.0 1.0 0.00 0.00 0.00 47 1008.3
20260505004020 66 227 2.0 2.0 0.00 0.00 0.00 46 1008.5
20260505003517 66 213 3.0 6.0 0.00 0.00 0.00 45 1008.3
20260505003015 66 265 0.0 1.0 0.00 0.00 0.00 47 1008.3
20260505002509 66 257 1.0 2.0 0.00 0.00 0.00 46 1008.3
20260505002009 66 205 1.0 2.0 0.00 0.00 0.00 46 1008.1
20260505001506 66 262 0.0 0.0 0.00 0.00 0.00 47 1008.1
20260505001003 67 184 0.0 1.0 0.00 0.00 0.00 44 1008.0
20260505000500 67 260 0.0 1.0 0.00 0.00 0.00 45 1008.1
20260504235957 67 171 3.0 4.0 0.00 0.00 0.00 44 1008.0
20260504235454 66 167 1.0 3.0 0.00 0.00 0.00 45 1008.1
20260504234950 67 204 0.0 0.0 0.00 0.00 0.00 44 1008.1
20260504234448 67 187 3.0 4.0 0.00 0.00 0.00 44 1008.1
20260504233944 67 165 6.0 8.0 0.00 0.00 0.00 42 1008.0
20260504233440 67 215 1.0 2.0 0.00 0.00 0.00 43 1007.9
20260504232937 68 158 2.0 3.0 0.00 0.00 0.00 42 1007.9
20260504232434 67 201 0.0 1.0 0.00 0.00 0.00 44 1007.8
20260504231931 68 158 5.0 6.0 0.00 0.00 0.00 42 1008.0
20260504231427 68 248 0.0 0.0 0.00 0.00 0.00 44 1008.0
20260504230924 67 164 2.0 3.0 0.00 0.00 0.00 43 1007.8